Location: Grisols
(45.0093°N, 3.1167°E)
Time: 07:21:09
(UTC+00:00)

NOSS 3-2 (A) - Pass Details

Date: 21 October 2019
Orbit: 816 x 1392 km, 63.4° (Epoch: 11 November)

Event Time Altitude Azimuth Distance (km) Brightness Sun altitude
Rises 17:31:31 0° 186° (S) 3,362 6.5 -7.5°
Reaches altitude 10° 17:34:04 10° 177° (S) 2,470 5.7 -7.9°
Maximum altitude 17:39:08 34° 114° (ESE) 1,447 4.0 -8.8°
Drops below altitude 10° 17:44:43 10° 52° (NE) 2,745 5.4 -9.8°
Enters shadow 17:46:23 - 46° (NE) 3,330 5.8 -10.1°
